Weather History for Medicine Lodge, KS

Change the Weather History Date:

Friday, October 5, 2012

  Actual Average Record
Temperature  
Mean Temperature 51 °F 63 °F  
Max Temperature 61 °F 76 °F 99 °F (1947)
Min Temperature 40 °F 51 °F 33 °F (1979)
Degree Days  
Heating Degree Days 14 4  
Month to date heating degree days 31 20  
Since 1 July heating degree days 43 54  
Cooling Degree Days 0 3  
Month to date cooling degree days 0 15  
Year to date cooling degree days 2212 1746  
Growing Degree Days 2 (Base 50)    
Moisture  
Dew Point 32 °F    
Average Humidity 47    
Maximum Humidity 65    
Minimum Humidity 28    
Precipitation  
Precipitation 0.00 in 0.08 in 1.43 in (1984)
Month to date precipitation 0.00 0.43  
Year to date precipitation 16.87 22.88  
Snow  
Snow 0.00 in 0.00 in - ()
Month to date snowfall 0.0 0.0  
Since 1 July snowfall 0.0 0.0  
Since 1 September snowfall 0.0 0.0  
Snow Depth 0.00 in    
Sea Level Pressure  
Sea Level Pressure 30.24 in    
Wind  
Wind Speed 13 mph (NE)    
Max Wind Speed 23 mph    
Max Gust Speed 29 mph    
T = Trace of Precipitation, MM = Missing Value Source: NWS Daily Summary

Daily Weather History Graph

Daily Weather History Graph

Search for Another Location

Airport:

Trip Planner

Search our weather history database for the weather conditions in past years. The results will help you decide how hot, cold, wet, or windy it might be!

Date:

Astronomy

Oct. 05, 2012 Rise Set
Actual Time 7:33 AM CDT 7:10 PM CDT
Civil Twilight 7:07 AM CDT 7:36 PM CDT
Nautical Twilight 6:37 AM CDT 8:06 PM CDT
Astronomical Twilight 6:07 AM CDT 8:37 PM CDT
Moon 10:41 PM CDT (10/5) 12:36 PM CDT (10/5)
Length of Visible Light 12h 29m
Length of Day
11h 37m
Waning Gibbous, 74% of the Moon is Illuminated
Oct 5
Waning Gibbous
Oct 8
Last Quarter
Oct 15
New
Oct 21
First Quarter
Oct 29
Full

Hourly Weather History & Observations

Time (CDT) Temp. Windchill Dew Point Humidity Pressure Visibility Wind Dir Wind Speed Gust Speed Precip Events Conditions
12:56 AM 55.9 °F - 37.9 °F 51% 30.25 in - NE 4.6 mph - N/A   Unknown
1:56 AM 55.0 °F - 37.0 °F 51% 30.23 in - ENE 9.2 mph - N/A   Unknown
2:56 AM 55.0 °F - 35.1 °F 47% 30.22 in - NE 8.1 mph - N/A   Unknown
3:56 AM 54.0 °F - 35.1 °F 49% 30.21 in - NE 8.1 mph - N/A   Unknown
4:56 AM 53.1 °F - 34.0 °F 48% 30.21 in - NNE 10.4 mph - N/A   Unknown
5:56 AM 52.0 °F - 34.0 °F 50% 30.22 in - NNE 13.8 mph - N/A   Unknown
6:56 AM 51.1 °F - 33.1 °F 50% 30.23 in - NNE 12.7 mph - N/A   Unknown
7:56 AM 50.0 °F - 33.1 °F 52% 30.22 in - NE 10.4 mph - N/A   Unknown
8:56 AM 50.0 °F - 32.0 °F 50% 30.22 in - NE 12.7 mph - N/A   Unknown
9:56 AM 52.0 °F - 32.0 °F 47% 30.24 in - ENE 15.0 mph - N/A   Unknown
10:56 AM 55.0 °F - 32.0 °F 42% 30.26 in - NNE 12.7 mph 19.6 mph N/A   Unknown
11:56 AM 55.9 °F - 32.0 °F 40% 30.25 in - NE 15.0 mph - N/A   Unknown
12:56 PM 57.0 °F - 33.1 °F 40% 30.25 in - NE 15.0 mph 23.0 mph N/A   Unknown
1:56 PM 60.1 °F - 32.0 °F 35% 30.22 in - NE 13.8 mph - N/A   Unknown
2:56 PM 60.1 °F - 30.9 °F 33% 30.20 in - NNE 17.3 mph 25.3 mph N/A   Unknown
3:56 PM 57.9 °F - 30.0 °F 35% 30.20 in - NE 18.4 mph 25.3 mph N/A   Unknown
4:56 PM 57.0 °F - 25.0 °F 29% 30.21 in - NE 17.3 mph 25.3 mph N/A   Unknown
5:56 PM 57.0 °F - 24.1 °F 28% 30.21 in - NE 17.3 mph - N/A   Unknown
6:56 PM 51.1 °F - 30.0 °F 44% 30.24 in - NNE 21.9 mph 28.8 mph N/A   Unknown
7:56 PM 48.0 °F - 30.9 °F 52% 30.27 in - NNE 15.0 mph - N/A   Unknown
8:56 PM 46.9 °F - 32.0 °F 56% 30.31 in - NNE 9.2 mph - N/A   Unknown
9:56 PM 45.0 °F 40.1 °F 32.0 °F 60% 30.32 in - NNE 9.2 mph - N/A   Unknown
10:56 PM 43.0 °F 37.7 °F 30.9 °F 62% 30.32 in - NNE 9.2 mph - N/A   Unknown
11:56 PM 41.0 °F 37.1 °F 30.9 °F 67% 30.34 in - North 5.8 mph - N/A   Unknown